Weather History for KPNM - September, 2013

Change the Weather History Date:

Wednesday, September 4, 2013

  Actual Average Record
Temperature  
Mean Temperature 68 °F -  
Max Temperature 82 °F 75 °F 91 °F (2007)
Min Temperature 53 °F 52 °F 42 °F (2003)
Cooling Degree Days 2    
Growing Degree Days 18 (Base 50)    
Moisture  
Dew Point 58 °F    
Average Humidity 73    
Maximum Humidity 100    
Minimum Humidity 48    
Precipitation  
Precipitation 0.00 in - - ()
Sea Level Pressure  
Sea Level Pressure 30.10 in    
Wind  
Wind Speed 2 mph (NE)    
Max Wind Speed 12 mph    
Max Gust Speed -    
Visibility 9 miles    
Events      
Averages and records for this station are not official NWS values.
T = Trace of Precipitation, MM = Missing Value Source: NWS Daily Summary

Daily Weather History Graph

Daily Weather History Graph

Search for Another Location

Airport or City:

Trip Planner

Search our weather history database for the weather conditions in past years. The results will help you decide how hot, cold, wet, or windy it might be!

Date:

Astronomy

Sep. 04, 2013 Rise Set
Actual Time 6:39 AM CDT 7:46 PM CDT
Civil Twilight 6:09 AM CDT 8:16 PM CDT
Nautical Twilight 5:32 AM CDT 8:52 PM CDT
Astronomical Twilight 4:54 AM CDT 9:31 PM CDT
Moon 5:52 AM CDT (9/4) 7:04 PM CDT (9/4)
Length of Visible Light 14h 07m
Length of Day
13h 06m
Waning Crescent, 1% of the Moon is Illuminated
Sep 4
Waning Crescent
Sep 5
New
Sep 12
First Quarter
Sep 19
Full
Sep 26
Last Quarter

Hourly Weather History & Observations

Time (CDT) Temp. Heat Index Dew Point Humidity Pressure Visibility Wind Dir Wind Speed Gust Speed Precip Events Conditions
12:13 AM 57.2 °F - 55.4 °F 94% 30.02 in 10.0 mi Calm Calm - N/A   Clear
12:33 AM 57.2 °F - 55.4 °F 94% 30.02 in 10.0 mi Calm Calm - N/A   Clear
12:53 AM 55.4 °F - 53.6 °F 94% 30.03 in 10.0 mi Calm Calm - N/A   Clear
1:13 AM 55.4 °F - 53.6 °F 94% 30.03 in 2.0 mi Calm Calm - N/A   Clear
1:34 AM 55.4 °F - 53.6 °F 94% 30.03 in 10.0 mi Calm Calm - N/A   Clear
1:53 AM 55.4 °F - 53.6 °F 94% 30.03 in 1.0 mi Calm Calm - N/A   Clear
2:13 AM 53.6 °F - 51.8 °F 94% 30.03 in 10.0 mi Calm Calm - N/A   Clear
2:33 AM 53.6 °F - 53.6 °F 100% 30.03 in 10.0 mi Calm Calm - N/A   Clear
2:53 AM 53.6 °F - 51.8 °F 94% 30.03 in 10.0 mi Calm Calm - N/A   Clear
3:13 AM 53.6 °F - 51.8 °F 94% 30.03 in 5.0 mi Calm Calm - N/A   Clear
3:33 AM 53.6 °F - 51.8 °F 94% 30.03 in 10.0 mi Calm Calm - N/A   Clear
3:53 AM 53.6 °F - 51.8 °F 94% 30.04 in 2.5 mi Calm Calm - N/A   Clear
4:13 AM 53.6 °F - 51.8 °F 94% 30.05 in 10.0 mi Calm Calm - N/A   Clear
4:33 AM 53.6 °F - 51.8 °F 94% 30.04 in 10.0 mi Calm Calm - N/A   Clear
4:53 AM 53.6 °F - 51.8 °F 94% 30.06 in 7.0 mi Calm Calm - N/A   Clear
5:13 AM 55.4 °F - 53.6 °F 94% 30.06 in 10.0 mi Calm Calm - N/A   Clear
5:33 AM 55.4 °F - 55.4 °F 100% 30.06 in 10.0 mi South 3.5 mph - N/A   Clear
5:53 AM 55.4 °F - 55.4 °F 100% 30.06 in 10.0 mi Calm Calm - N/A   Clear
6:13 AM 55.4 °F - 53.6 °F 94% 30.06 in 7.0 mi Calm Calm - N/A   Clear
6:33 AM 55.4 °F - 53.6 °F 94% 30.07 in 7.0 mi Calm Calm - N/A   Clear
6:53 AM 55.4 °F - 53.6 °F 94% 30.08 in 5.0 mi Calm Calm - N/A   Clear
7:13 AM 55.4 °F - 53.6 °F 94% 30.08 in 10.0 mi Calm Calm - N/A   Clear
7:33 AM 55.4 °F - 55.4 °F 100% 30.09 in 10.0 mi Calm Calm - N/A   Clear
7:53 AM 57.2 °F - 57.2 °F 100% 30.09 in 10.0 mi Calm Calm - N/A   Clear
8:13 AM 59.0 °F - 57.2 °F 94% 30.09 in 10.0 mi Calm Calm - N/A   Clear
8:33 AM 62.6 °F - 60.8 °F 94% 30.10 in 10.0 mi Calm Calm - N/A   Clear
8:53 AM 64.4 °F - 60.8 °F 88% 30.10 in 10.0 mi Calm Calm - N/A   Clear
9:13 AM 66.2 °F - 60.8 °F 83% 30.10 in 10.0 mi North 5.8 mph - N/A   Clear
9:33 AM 69.8 °F - 62.6 °F 78% 30.10 in 10.0 mi NNE 6.9 mph - N/A   Clear
9:53 AM 71.6 °F - 62.6 °F 73% 30.10 in 10.0 mi NNE 4.6 mph - N/A   Clear
10:13 AM 71.6 °F - 62.6 °F 73% 30.11 in 10.0 mi NE 4.6 mph - N/A   Clear
10:33 AM 73.4 °F - 62.6 °F 69% 30.12 in 10.0 mi NNE 6.9 mph - N/A   Clear
10:53 AM 75.2 °F - 62.6 °F 65% 30.12 in 10.0 mi NNE 4.6 mph - N/A   Clear
11:13 AM 75.2 °F - 62.6 °F 65% 30.12 in 10.0 mi NE 3.5 mph - N/A   Clear
11:33 AM 78.8 °F - 62.6 °F 57% 30.12 in 10.0 mi ENE 8.1 mph - N/A   Clear
11:53 AM 78.8 °F - 64.4 °F 61% 30.13 in 10.0 mi NNE 9.2 mph - N/A   Clear
12:13 PM 78.8 °F - 62.6 °F 57% 30.13 in 10.0 mi NNE 5.8 mph - N/A   Clear
12:33 PM 80.6 °F 81.8 °F 62.6 °F 54% 30.14 in 10.0 mi NNE 10.4 mph - N/A   Clear
12:53 PM 80.6 °F 81.8 °F 62.6 °F 54% 30.13 in 10.0 mi North 4.6 mph - N/A   Clear
1:13 PM 80.6 °F 81.8 °F 62.6 °F 54% 30.13 in 10.0 mi NE 9.2 mph - N/A   Clear
1:33 PM 80.6 °F 81.1 °F 59.0 °F 48% 30.13 in 10.0 mi NNE 5.8 mph - N/A   Clear
1:54 PM 80.6 °F 81.5 °F 60.8 °F 51% 30.13 in 10.0 mi ENE 6.9 mph - N/A   Clear
2:13 PM 80.6 °F 81.5 °F 60.8 °F 51% 30.13 in 10.0 mi North 6.9 mph - N/A   Clear
2:33 PM 82.4 °F 82.9 °F 60.8 °F 48% 30.12 in 10.0 mi NNE 6.9 mph - N/A   Clear
2:53 PM 82.4 °F 83.4 °F 62.6 °F 51% 30.12 in 10.0 mi North 5.8 mph - N/A   Clear
3:13 PM 82.4 °F 83.4 °F 62.6 °F 51% 30.12 in 10.0 mi North 5.8 mph - N/A   Clear
3:33 PM 82.4 °F 83.4 °F 62.6 °F 51% 30.11 in 10.0 mi NNE 5.8 mph - N/A   Clear
3:53 PM 82.4 °F 82.9 °F 60.8 °F 48% 30.11 in 10.0 mi East 3.5 mph - N/A   Clear
4:13 PM 82.4 °F 82.9 °F 60.8 °F 48% 30.11 in 10.0 mi NE 3.5 mph - N/A   Clear
4:33 PM 82.4 °F 83.4 °F 62.6 °F 51% 30.11 in 10.0 mi North 10.4 mph - N/A   Clear
4:53 PM 80.6 °F 81.8 °F 62.6 °F 54% 30.12 in 10.0 mi NNE 11.5 mph - N/A   Clear
5:13 PM 78.8 °F - 62.6 °F 57% 30.12 in 10.0 mi NE 8.1 mph - N/A   Clear
5:33 PM 78.8 °F - 60.8 °F 54% 30.12 in 10.0 mi NE 6.9 mph - N/A   Clear
5:53 PM 77.0 °F - 60.8 °F 57% 30.12 in 10.0 mi NE 9.2 mph - N/A   Clear
6:13 PM 77.0 °F - 60.8 °F 57% 30.12 in 10.0 mi NE 6.9 mph - N/A   Clear
6:33 PM 75.2 °F - 60.8 °F 61% 30.12 in 10.0 mi NE 5.8 mph - N/A   Clear
6:53 PM 75.2 °F - 60.8 °F 61% 30.12 in 10.0 mi NE 4.6 mph - N/A   Clear
7:13 PM 75.2 °F - 59.0 °F 57% 30.12 in 10.0 mi NE 4.6 mph - N/A   Clear
7:33 PM 73.4 °F - 57.2 °F 57% 30.12 in 10.0 mi NNE 4.6 mph - N/A   Clear
7:53 PM 71.6 °F - 57.2 °F 60% 30.13 in 10.0 mi NE 4.6 mph - N/A   Clear
8:13 PM 71.6 °F - 57.2 °F 60% 30.14 in 10.0 mi NE 4.6 mph - N/A   Clear
8:33 PM 69.8 °F - 57.2 °F 64% 30.14 in 10.0 mi NE 3.5 mph - N/A   Clear
8:53 PM 69.8 °F - 57.2 °F 64% 30.15 in 10.0 mi NE 5.8 mph - N/A   Clear
9:13 PM 69.8 °F - 57.2 °F 64% 30.15 in 10.0 mi NE 4.6 mph - N/A   Clear
9:33 PM 68.0 °F - 55.4 °F 64% 30.16 in 10.0 mi ENE 3.5 mph - N/A   Clear
9:53 PM 68.0 °F - 55.4 °F 64% 30.16 in 10.0 mi Calm Calm - N/A   Clear
10:13 PM 68.0 °F - 55.4 °F 64% 30.16 in 10.0 mi ENE 3.5 mph - N/A   Clear
10:33 PM 68.0 °F - 55.4 °F 64% 30.16 in 10.0 mi ENE 4.6 mph - N/A   Clear
10:53 PM 66.2 °F - 55.4 °F 68% 30.17 in 10.0 mi ENE 4.6 mph - N/A   Clear
11:13 PM 66.2 °F - 55.4 °F 68% 30.17 in 10.0 mi Calm Calm - N/A   Clear
11:33 PM 64.4 °F - 55.4 °F 73% 30.18 in 10.0 mi NE 3.5 mph - N/A   Clear
11:53 PM 64.4 °F - 55.4 °F 73% 30.18 in 10.0 mi Calm Calm - N/A   Clear